Regional Weather Roundup
Issued by NWS State College, PA

Home | Current Version | Previous Version | Text Only | Print | Product List | Glossary On
Versions: 1 2 3 4 5 6 7 8 9 10 11 12 13 14 15 16 17 18 19 20 21 22 23 24 25 26 27 28 29 30 31 32 33 34 35 36 37 38 39 40 41 42 43 44 45 46 47 48 49 50
000
ASUS41 KCTP 280210
RWRCTP

REGIONAL WEATHER ROUNDUP
NATIONAL WEATHER SERVICE STATE COLLEGE PA
1000 PM EDT FRI MAY 27 2016

Note: "fair" indicates few or no clouds below 12,000 feet with no
significant weather and/or obstructions to visibility.

* = STATION THAT DOES NOT REPORT PRECIPITATION /E.G. RAIN...SNOW...ETC/
    THUNDER OR FOG.

PAZ002>004-007>009-013>016-020>023-029>032-280300-
WESTERN PENNSYLVANIA

CITY           SKY/WX    TMP DP  RH WIND       PRES   REMARKS
ERIE           PTCLDY    71  63  75 CALM      30.02R
MEADVILLE      CLEAR     70  65  84 CALM      30.06R
FRANKLIN*      CLEAR     73  57  56 S3        30.09R
NEW CASTLE     FAIR      69  64  84 CALM      30.05R
BEAVER COUNTY  NOT AVBL
BUTLER*        CLEAR     73  64  73 CALM      30.08R
PITTSBURGH INT PTCLDY    80  62  54 SW3       30.05R
PITTSBURGH     CLOUDY    79  60  52 S6        30.05R
INDIANA*       PTCLDY    72  66  83 CALM      30.10S
LATROBE        CLEAR     72  66  83 SW3       30.07R
WASHINGTON CO* CLEAR     70  63  78 CALM      30.07R
$$

PAZ004>006-010>012-017>019-024>028-033>037-041-042-045-046-049>053-280300-
CENTRAL PENNSYLVANIA

CITY           SKY/WX    TMP DP  RH WIND       PRES   REMARKS
BRADFORD       MOCLDY    67  60  78 CALM      30.10R
DUBOIS         PTCLDY    70  60  70 CALM      30.08R
CLEARFIELD     PTCLDY    72  61  68 CALM      30.08R
JOHNSTOWN      CLOUDY    70  59  68 S10       30.13R
ALTOONA        PTCLDY    71  64  78 SW5       30.11R
STATE COLLEGE  PTCLDY    72  64  74 SW5       30.08R
WILLIAMSPORT   CLOUDY    73  66  78 CALM      30.03R
SELINSGROVE    CLEAR     77  64  64 S5        30.05R
FT INDIANTOWN  PTCLDY    77  66  69 CALM      30.07R
CAPITAL CITY   MOCLDY    73  65  75 S3        30.06R
HARRISBURG     MOCLDY    73  68  84 W5        30.05R
YORK           MOCLDY    75  64  68 S9        30.06R
$$

PAZ038>040-043-044-047-048-054-055-060>062-067>071-280300-
EASTERN PENNSYLVANIA

CITY           SKY/WX    TMP DP  RH WIND       PRES   REMARKS
SCRANTON       CLOUDY    75  65  70 CALM      30.06R
MOUNT POCONO   PTCLDY    70  62  76 W6        30.12R
ALLENTOWN      CLEAR     81  67  62 SW10      30.05R
QUAKERTOWN*    CLEAR     79  66  65 SW3       30.08R
READING        MOCLDY    80  67  64 S8        30.05R
LANCASTER      PTCLDY    77  68  73 SW12      30.07R
COATESVILLE    PTCLDY    75  68  78 CALM      30.11R
POTTSTOWN      CLEAR     79  67  66 S8        30.08R
BLUE BELL      CLEAR     77  68  73 S7        30.07R
DOYLESTOWN     CLEAR     77  64  64 S5        30.07R
WILLOW GROVE   NOT AVBL
NORTH PHILA    PTCLDY    81  66  60 SW9       30.08R
PHILADELPHIA   MOCLDY    78  65  63 S8        30.09R
$$




USA.gov is the U.S. government's official web portal to all federal, state and local government web resources and services.